Murray, KY

9:39 PM CDT on April 30, 2017 (GMT -0500)
Kyle-Oakley

Weather History for KCEY - June, 2014

Change the Weather History Date:

Sunday, June 29, 2014

  Actual Average (KPAH) Record (KPAH)
Temperature  
Mean Temperature 72 °F -  
Max Temperature 77 °F 89 °F 108 °F (2012)
Min Temperature 68 °F 67 °F 57 °F (1950)
Cooling Degree Days 8    
Growing Degree Days 22 (Base 50)    
Moisture  
Dew Point 69 °F    
Average Humidity 92    
Maximum Humidity 100    
Minimum Humidity 74    
Precipitation  
Precipitation 0.06 in - - ()
Sea Level Pressure  
Sea Level Pressure 30.09 in    
Wind  
Wind Speed 7 mph (SSW)    
Max Wind Speed 12 mph    
Max Gust Speed 21 mph    
Visibility 10 miles    
Events      
Averages and records for this station are not official NWS values.
T = Trace of Precipitation, MM = Missing Value Source: NWS Daily Summary

Daily Weather History Graph

Daily Weather History Graph

Search for Another Location

Airport or City:

Trip Planner

Search our weather history database for the weather conditions in past years. The results will help you decide how hot, cold, wet, or windy it might be!

Date:

Astronomy

Jun. 29, 2014 Rise Set
Actual Time 5:37 AM CDT 8:16 PM CDT
Civil Twilight 5:07 AM CDT 8:46 PM CDT
Nautical Twilight 4:29 AM CDT 9:24 PM CDT
Astronomical Twilight 3:46 AM CDT 10:07 PM CDT
Moon 7:51 AM CDT (6/29) 9:41 PM CDT (6/29)
Length of Visible Light 15h 39m
Length of Day
14h 38m
Waxing Crescent, 5% of the Moon is Illuminated
Jun 29
Waxing Crescent
Jul 5
First Quarter
Jul 12
Full
Jul 18
Last Quarter
Jul 26
New

Hourly Weather History & Observations

Time (CDT) Temp. Dew Point Humidity Pressure Visibility Wind Dir Wind Speed Gust Speed Precip Events Conditions
12:15 AM 71.6 °F 69.8 °F 94% 30.12 in 10.0 mi SSW 10.4 mph - N/A   Mostly Cloudy
12:35 AM 71.6 °F 68.0 °F 88% 30.13 in 10.0 mi SSW 8.1 mph - N/A   Mostly Cloudy
12:55 AM 71.6 °F 68.0 °F 88% 30.13 in 10.0 mi South 9.2 mph - N/A   Partly Cloudy
1:15 AM 69.8 °F 68.0 °F 94% 30.12 in 10.0 mi SSW 8.1 mph - N/A   Scattered Clouds
1:35 AM 69.8 °F 68.0 °F 94% 30.12 in 10.0 mi South 8.1 mph - N/A   Scattered Clouds
1:55 AM 68.0 °F 68.0 °F 100% 30.11 in 10.0 mi South 8.1 mph - N/A   Partly Cloudy
2:15 AM 68.0 °F 68.0 °F 100% 30.10 in 10.0 mi SSW 4.6 mph - N/A   Clear
2:35 AM 68.0 °F 68.0 °F 100% 30.09 in 10.0 mi South 5.8 mph - N/A   Clear
2:55 AM 68.0 °F 68.0 °F 100% 30.08 in 10.0 mi South 4.6 mph - N/A   Partly Cloudy
3:15 AM 68.0 °F 68.0 °F 100% 30.09 in 10.0 mi South 4.6 mph - N/A   Mostly Cloudy
3:35 AM 68.0 °F 68.0 °F 100% 30.08 in 10.0 mi South 5.8 mph - N/A   Mostly Cloudy
3:55 AM 68.0 °F 66.2 °F 94% 30.08 in 10.0 mi South 8.1 mph - N/A   Mostly Cloudy
4:15 AM 68.0 °F 66.2 °F 94% 30.08 in 10.0 mi South 6.9 mph - N/A   Scattered Clouds
4:35 AM 68.0 °F 66.2 °F 94% 30.09 in 10.0 mi South 6.9 mph - N/A   Partly Cloudy
4:55 AM 68.0 °F 68.0 °F 100% 30.10 in 10.0 mi SSW 6.9 mph - N/A   Scattered Clouds
5:15 AM 68.0 °F 68.0 °F 100% 30.10 in 10.0 mi SSW 10.4 mph 18.4 mph N/A   Mostly Cloudy
5:35 AM 68.0 °F 68.0 °F 100% 30.11 in 10.0 mi SSW 10.4 mph 20.7 mph N/A   Scattered Clouds
5:55 AM 68.0 °F 68.0 °F 100% 30.11 in 10.0 mi SSW 9.2 mph 18.4 mph N/A   Mostly Cloudy
6:15 AM 68.0 °F 68.0 °F 100% 30.11 in 10.0 mi SSW 11.5 mph 16.1 mph N/A   Scattered Clouds
6:35 AM 68.0 °F 68.0 °F 100% 30.11 in 10.0 mi SSW 6.9 mph - N/A   Clear
6:55 AM 68.0 °F 68.0 °F 100% 30.11 in 10.0 mi South 6.9 mph - N/A   Clear
7:15 AM 68.0 °F 68.0 °F 100% 30.12 in 10.0 mi SSW 6.9 mph - N/A   Clear
7:35 AM 68.0 °F 68.0 °F 100% 30.12 in 10.0 mi SSW 5.8 mph - 0.01 in   Clear
7:55 AM 68.0 °F 68.0 °F 100% 30.12 in 10.0 mi South 4.6 mph - 0.01 in   Clear
8:15 AM 68.0 °F 68.0 °F 100% 30.13 in 10.0 mi SSW 5.8 mph - N/A   Mostly Cloudy
8:35 AM 69.8 °F 69.8 °F 100% 30.13 in 10.0 mi South 8.1 mph - 0.01 in   Mostly Cloudy
8:55 AM 68.0 °F 68.0 °F 100% 30.13 in 10.0 mi South 8.1 mph 16.1 mph 0.01 in   Partly Cloudy
9:15 AM 68.0 °F 68.0 °F 100% 30.13 in 10.0 mi SSW 8.1 mph - N/A   Clear
9:35 AM 68.0 °F 68.0 °F 100% 30.14 in 10.0 mi SW 6.9 mph - N/A   Partly Cloudy
9:55 AM 68.0 °F 68.0 °F 100% 30.15 in 7.0 mi SW 8.1 mph - 0.02 in   Scattered Clouds
10:15 AM 68.0 °F 68.0 °F 100% 30.16 in 8.0 mi SW 5.8 mph - 0.01 in   Mostly Cloudy
10:35 AM 69.8 °F 69.8 °F 100% 30.16 in 10.0 mi SW 5.8 mph - 0.02 in   Scattered Clouds
10:55 AM 69.8 °F 69.8 °F 100% 30.14 in 10.0 mi South 4.6 mph - 0.02 in   Partly Cloudy
11:15 AM 71.6 °F 71.6 °F 100% 30.14 in 10.0 mi SW 6.9 mph - N/A   Scattered Clouds
11:35 AM 71.6 °F 71.6 °F 100% 30.14 in 10.0 mi South 6.9 mph - N/A   Overcast
11:55 AM 71.6 °F 69.8 °F 94% 30.13 in 10.0 mi South 8.1 mph - N/A   Mostly Cloudy
12:15 PM 71.6 °F 69.8 °F 94% 30.13 in 10.0 mi SSW 9.2 mph - N/A   Partly Cloudy
12:35 PM 73.4 °F 69.8 °F 88% 30.13 in 10.0 mi SW 9.2 mph - N/A   Mostly Cloudy
12:55 PM 73.4 °F 68.0 °F 83% 30.12 in 10.0 mi WSW 9.2 mph - N/A   Mostly Cloudy
1:15 PM 75.2 °F 68.0 °F 78% 30.11 in 10.0 mi WSW 11.5 mph - N/A   Scattered Clouds
1:35 PM 75.2 °F 68.0 °F 78% 30.10 in 10.0 mi WSW 11.5 mph - N/A   Partly Cloudy
1:55 PM 77.0 °F 68.0 °F 74% 30.09 in 10.0 mi South 6.9 mph - N/A   Partly Cloudy
2:15 PM 77.0 °F 68.0 °F 74% 30.09 in 10.0 mi SW 8.1 mph - N/A   Clear
2:35 PM 77.0 °F 68.0 °F 74% 30.09 in 10.0 mi SW 8.1 mph - N/A   Clear
2:55 PM 75.2 °F 69.8 °F 83% 30.09 in 10.0 mi SSW 8.1 mph - N/A   Partly Cloudy
3:15 PM 75.2 °F 69.8 °F 83% 30.09 in 10.0 mi SSW 6.9 mph - N/A   Partly Cloudy
3:35 PM 73.4 °F 69.8 °F 88% 30.09 in 10.0 mi SSW 6.9 mph - N/A   Partly Cloudy
3:55 PM 73.4 °F 68.0 °F 83% 30.08 in 10.0 mi SW 5.8 mph - N/A   Clear
4:15 PM 73.4 °F 69.8 °F 88% 30.07 in 10.0 mi South 8.1 mph - N/A   Mostly Cloudy
4:35 PM 73.4 °F 69.8 °F 88% 30.07 in 10.0 mi South 8.1 mph - N/A   Scattered Clouds
4:55 PM 73.4 °F 68.0 °F 83% 30.07 in 10.0 mi SSW 5.8 mph - N/A   Mostly Cloudy
5:15 PM 73.4 °F 69.8 °F 88% 30.06 in 10.0 mi SW 6.9 mph - N/A   Overcast
5:35 PM 73.4 °F 69.8 °F 88% 30.05 in 10.0 mi SSW 5.8 mph - N/A   Overcast
5:55 PM 75.2 °F 69.8 °F 83% 30.05 in 10.0 mi South 9.2 mph - N/A   Mostly Cloudy
6:15 PM 75.2 °F 68.0 °F 78% 30.04 in 10.0 mi South 8.1 mph - N/A   Mostly Cloudy
6:35 PM 75.2 °F 68.0 °F 78% 30.04 in 10.0 mi SSE 5.8 mph - N/A   Mostly Cloudy
6:55 PM 75.2 °F 68.0 °F 78% 30.05 in 10.0 mi South 4.6 mph - N/A   Partly Cloudy
7:15 PM 73.4 °F 68.0 °F 83% 30.05 in 10.0 mi South 6.9 mph - N/A   Scattered Clouds
7:35 PM 73.4 °F 69.8 °F 88% 30.05 in 10.0 mi South 5.8 mph - N/A   Mostly Cloudy
7:55 PM 73.4 °F 69.8 °F 88% 30.05 in 10.0 mi South 4.6 mph - N/A   Overcast
8:15 PM 73.4 °F 68.0 °F 83% 30.03 in 10.0 mi South 5.8 mph - N/A   Overcast
8:35 PM 71.6 °F 68.0 °F 88% 30.03 in 10.0 mi SSE 3.5 mph - N/A   Partly Cloudy
8:55 PM 71.6 °F 68.0 °F 88% 30.03 in 10.0 mi South 5.8 mph - N/A   Mostly Cloudy
9:15 PM 71.6 °F 68.0 °F 88% 30.03 in 10.0 mi South 5.8 mph - N/A   Overcast
9:35 PM 71.6 °F 68.0 °F 88% 30.03 in 10.0 mi Calm Calm - N/A   Overcast
9:55 PM 71.6 °F 68.0 °F 88% 30.04 in 10.0 mi SSE 4.6 mph - N/A   Overcast
10:15 PM 71.6 °F 69.8 °F 94% 30.04 in 10.0 mi South 6.9 mph - N/A   Overcast
10:35 PM 71.6 °F 69.8 °F 94% 30.04 in 10.0 mi South 4.6 mph - N/A   Overcast
10:55 PM 71.6 °F 69.8 °F 94% 30.04 in 10.0 mi South 4.6 mph - N/A   Overcast
11:15 PM 71.6 °F 69.8 °F 94% 30.04 in 10.0 mi South 5.8 mph - N/A   Overcast
11:35 PM 71.6 °F 71.6 °F 100% 30.04 in 10.0 mi South 5.8 mph - N/A   Overcast
11:55 PM 71.6 °F 71.6 °F 100% 30.03 in 10.0 mi SSE 4.6 mph - N/A   Overcast